ASA66 PAYA-PAJN

Flight info

Callsign ASA66
Flight time 0h 33m
Altitude 27000
Route YAK HAPIT SSR
Aircraft B737/M-SDE2E3FGHIRWXY/LB1

Departure

Time 2026-04-21 22:21
Airport Yakutat Airport (PAYA)

Arrival

Time 2026-04-21 22:54
Airport Juneau International Airport (PAJN)
Time Latitude Longitude Altitude Speed Heading
2026-04-21 21:56 59.50783 -139.66744 34 ft 0 kts 339°
2026-04-21 21:59 59.50771 -139.66735 36 ft 0 kts 339°
2026-04-21 22:18 59.50781 -139.66743 34 ft 4 kts 339°
2026-04-21 22:18 59.50821 -139.66744 32 ft 7 kts 25°
2026-04-21 22:18 59.50857 -139.66686 34 ft 7 kts 43°
2026-04-21 22:19 59.50889 -139.66623 33 ft 6 kts 45°
2026-04-21 22:19 59.50907 -139.66524 34 ft 14 kts 82°
2026-04-21 22:19 59.50951 -139.66338 33 ft 16 kts 46°
2026-04-21 22:19 59.50966 -139.66169 30 ft 13 kts 125°
2026-04-21 22:20 59.50910 -139.66029 30 ft 12 kts 144°
2026-04-21 22:20 59.50879 -139.66042 30 ft 0 kts 227°
2026-04-21 22:20 59.50784 -139.66226 31 ft 61 kts 224°
2026-04-21 22:20 59.50262 -139.67234 82 ft 141 kts 223°
2026-04-21 22:21 59.49474 -139.68665 835 ft 165 kts 223°
2026-04-21 22:21 59.48542 -139.70289 1636 ft 195 kts 223°
2026-04-21 22:21 59.47339 -139.71872 2349 ft 220 kts 201°
2026-04-21 22:21 59.45785 -139.71975 3526 ft 231 kts 167°
2026-04-21 22:22 59.44303 -139.70441 4478 ft 256 kts 144°
2026-04-21 22:22 59.42926 -139.68072 5534 ft 268 kts 139°
2026-04-21 22:22 59.41550 -139.65524 6696 ft 274 kts 138°
2026-04-21 22:22 59.40151 -139.62895 7752 ft 283 kts 138°
2026-04-21 22:23 59.38700 -139.60176 8768 ft 293 kts 139°
2026-04-21 22:23 59.37200 -139.57378 9797 ft 302 kts 139°
2026-04-21 22:23 59.35643 -139.54492 10583 ft 319 kts 140°
2026-04-21 22:23 59.33945 -139.51368 10922 ft 348 kts 140°
2026-04-21 22:24 59.32146 -139.48066 11712 ft 360 kts 140°
2026-04-21 22:24 59.30294 -139.44670 12655 ft 368 kts 140°
2026-04-21 22:24 59.28406 -139.41217 13610 ft 376 kts 141°
2026-04-21 22:24 59.26470 -139.37687 14427 ft 385 kts 141°
2026-04-21 22:25 59.24519 -139.34136 15260 ft 392 kts 141°
2026-04-21 22:25 59.22504 -139.30477 16149 ft 398 kts 141°
2026-04-21 22:25 59.20464 -139.26778 17005 ft 405 kts 141°
2026-04-21 22:25 59.18350 -139.22954 17868 ft 412 kts 141°
2026-04-21 22:26 59.16260 -139.19180 18653 ft 419 kts 141°
2026-04-21 22:26 59.14103 -139.15294 19390 ft 425 kts 141°
2026-04-21 22:26 59.11913 -139.11353 20122 ft 432 kts 140°
2026-04-21 22:26 59.09688 -139.07357 20860 ft 439 kts 140°
2026-04-21 22:27 59.07428 -139.03306 21581 ft 445 kts 140°
2026-04-21 22:27 59.05134 -138.99202 22274 ft 452 kts 140°
2026-04-21 22:27 59.02809 -138.95049 23034 ft 456 kts 140°
2026-04-21 22:27 59.00456 -138.90854 23738 ft 462 kts 140°
2026-04-21 22:28 58.98072 -138.86613 24293 ft 468 kts 140°
2026-04-21 22:28 58.95658 -138.82328 24897 ft 473 kts 140°
2026-04-21 22:28 58.93216 -138.78001 25482 ft 477 kts 140°
2026-04-21 22:28 58.90752 -138.73643 26066 ft 482 kts 140°
2026-04-21 22:29 58.88253 -138.69235 26396 ft 492 kts 140°
2026-04-21 22:29 58.85702 -138.64746 26778 ft 500 kts 140°
2026-04-21 22:29 58.83114 -138.60200 27021 ft 507 kts 140°
2026-04-21 22:29 58.80485 -138.55590 27002 ft 512 kts 140°
2026-04-21 22:30 58.77852 -138.50981 26998 ft 509 kts 140°
2026-04-21 22:30 58.75239 -138.46413 26988 ft 505 kts 140°
2026-04-21 22:30 58.72627 -138.41860 26999 ft 507 kts 140°
2026-04-21 22:30 58.70040 -138.37363 27004 ft 507 kts 140°
2026-04-21 22:31 58.67385 -138.32758 27007 ft 508 kts 140°
2026-04-21 22:31 58.64788 -138.28263 26998 ft 508 kts 140°
2026-04-21 22:31 58.62149 -138.23704 26999 ft 508 kts 140°
2026-04-21 22:31 58.59513 -138.19161 26995 ft 508 kts 140°
2026-04-21 22:32 58.57772 -138.16163 27000 ft 508 kts 140°
2026-04-21 22:32 58.55140 -138.11643 27005 ft 507 kts 140°
2026-04-21 22:32 58.51656 -138.05672 27001 ft 507 kts 140°
2026-04-21 22:32 58.49022 -138.01170 26999 ft 506 kts 140°
2026-04-21 22:33 58.47278 -137.98194 27007 ft 506 kts 140°
2026-04-21 22:33 58.44620 -137.93666 27006 ft 506 kts 140°
2026-04-21 22:33 58.42019 -137.89244 27008 ft 506 kts 140°
2026-04-21 22:33 58.39388 -137.84782 27003 ft 506 kts 140°
2026-04-21 22:34 58.36759 -137.80330 26997 ft 505 kts 140°
2026-04-21 22:34 58.34130 -137.75888 27005 ft 504 kts 140°
2026-04-21 22:34 58.31505 -137.71463 27007 ft 504 kts 140°
2026-04-21 22:34 58.28883 -137.67047 27006 ft 503 kts 140°
2026-04-21 22:35 58.26264 -137.62648 27004 ft 503 kts 140°
2026-04-21 22:35 58.23655 -137.58201 27000 ft 503 kts 136°
2026-04-21 22:35 58.21529 -137.52951 27000 ft 502 kts 117°
2026-04-21 22:35 58.20207 -137.46871 27013 ft 497 kts 101°
2026-04-21 22:36 58.19678 -137.34128 27001 ft 486 kts 83°
2026-04-21 22:36 58.19709 -137.27727 26995 ft 486 kts 83°
2026-04-21 22:36 58.19750 -137.21321 26992 ft 486 kts 83°
2026-04-21 22:37 58.19776 -137.14916 26993 ft 486 kts 83°
2026-04-21 22:37 58.19784 -137.08477 26616 ft 490 kts 84°
2026-04-21 22:37 58.19774 -137.02123 26083 ft 484 kts 84°
2026-04-21 22:37 58.19747 -136.95753 25405 ft 479 kts 85°
2026-04-21 22:38 58.19711 -136.89461 24717 ft 472 kts 85°
2026-04-21 22:38 58.19673 -136.83274 24037 ft 467 kts 85°
2026-04-21 22:38 58.19632 -136.77139 23300 ft 462 kts 86°
2026-04-21 22:38 58.19592 -136.71156 22546 ft 456 kts 86°
2026-04-21 22:39 58.19549 -136.65178 21880 ft 449 kts 86°
2026-04-21 22:39 58.19505 -136.59292 21211 ft 443 kts 86°
2026-04-21 22:39 58.19460 -136.53480 20538 ft 438 kts 86°
2026-04-21 22:39 58.19413 -136.47736 19886 ft 433 kts 86°
2026-04-21 22:40 58.19364 -136.42050 19234 ft 429 kts 87°
2026-04-21 22:40 58.19312 -136.36405 18585 ft 425 kts 87°
2026-04-21 22:40 58.19260 -136.30885 17903 ft 422 kts 87°
2026-04-21 22:40 58.19205 -136.25355 17204 ft 418 kts 87°
2026-04-21 22:41 58.19147 -136.19868 16557 ft 413 kts 88°
2026-04-21 22:41 58.19088 -136.14445 15932 ft 409 kts 88°
2026-04-21 22:41 58.19028 -136.09130 15297 ft 406 kts 88°
2026-04-21 22:41 58.18965 -136.03775 14681 ft 403 kts 88°
2026-04-21 22:42 58.18901 -135.98483 14045 ft 399 kts 88°
2026-04-21 22:42 58.18835 -135.93231 13357 ft 396 kts 89°
2026-04-21 22:42 58.18768 -135.88042 12640 ft 392 kts 89°
2026-04-21 22:42 58.18700 -135.82889 11960 ft 389 kts 90°
2026-04-21 22:43 58.18630 -135.77794 11325 ft 384 kts 90°
2026-04-21 22:43 58.18558 -135.72768 10708 ft 379 kts 91°
2026-04-21 22:43 58.18487 -135.67853 10460 ft 363 kts 90°
2026-04-21 22:43 58.18417 -135.63235 10265 ft 347 kts 90°
2026-04-21 22:44 58.18348 -135.58765 10140 ft 332 kts 91°
2026-04-21 22:44 58.18281 -135.54471 9989 ft 319 kts 91°
2026-04-21 22:44 58.18216 -135.50371 9965 ft 304 kts 91°
2026-04-21 22:44 58.18152 -135.46419 9480 ft 304 kts 91°
2026-04-21 22:45 58.18087 -135.42419 9003 ft 299 kts 91°
2026-04-21 22:45 58.18022 -135.38529 8592 ft 291 kts 91°
2026-04-21 22:45 58.17957 -135.34750 8207 ft 283 kts 91°
2026-04-21 22:45 58.17892 -135.31067 7891 ft 277 kts 92°
2026-04-21 22:46 58.17832 -135.27420 7542 ft 277 kts 90°
2026-04-21 22:46 58.18218 -135.23892 7165 ft 275 kts 65°
2026-04-21 22:46 58.19010 -135.20613 6838 ft 274 kts 64°
2026-04-21 22:46 58.19804 -135.17326 6484 ft 274 kts 65°
2026-04-21 22:47 58.20590 -135.14022 6100 ft 275 kts 65°
2026-04-21 22:47 58.21371 -135.10709 5738 ft 274 kts 65°
2026-04-21 22:47 58.22208 -135.07468 5365 ft 273 kts 53°
2026-04-21 22:47 58.23621 -135.05160 5031 ft 267 kts 22°
2026-04-21 22:48 58.25322 -135.04129 4855 ft 255 kts
2026-04-21 22:48 58.27032 -135.03587 4720 ft 244 kts
2026-04-21 22:48 58.28679 -135.03102 4599 ft 234 kts
2026-04-21 22:48 58.30253 -135.02617 4507 ft 226 kts
2026-04-21 22:49 58.31798 -135.02127 4419 ft 226 kts
2026-04-21 22:49 58.33363 -135.01625 4168 ft 228 kts
2026-04-21 22:49 58.34825 -135.00441 3900 ft 235 kts 41°
2026-04-21 22:49 58.35638 -134.97815 3688 ft 231 kts 79°
2026-04-21 22:50 58.35761 -134.94831 3464 ft 222 kts 91°
2026-04-21 22:50 58.35758 -134.91917 3247 ft 217 kts 92°
2026-04-21 22:50 58.35751 -134.89093 2996 ft 209 kts 91°
2026-04-21 22:50 58.35751 -134.86379 2793 ft 199 kts 91°
2026-04-21 22:51 58.35749 -134.83774 2566 ft 197 kts 92°
2026-04-21 22:51 58.35751 -134.81170 2293 ft 195 kts 91°
2026-04-21 22:51 58.35757 -134.78641 2032 ft 190 kts 91°
2026-04-21 22:51 58.35763 -134.76199 1776 ft 179 kts 92°
2026-04-21 22:52 58.35781 -134.73900 1538 ft 168 kts 90°
2026-04-21 22:52 58.35797 -134.71768 1328 ft 155 kts 93°
2026-04-21 22:52 58.35791 -134.69798 1141 ft 139 kts 92°
2026-04-21 22:52 58.35783 -134.68050 981 ft 128 kts 92°
2026-04-21 22:53 58.35775 -134.66345 790 ft 128 kts 93°
2026-04-21 22:53 58.35768 -134.64665 596 ft 124 kts 92°
2026-04-21 22:53 58.35762 -134.63051 439 ft 120 kts 92°
2026-04-21 22:53 58.35757 -134.61489 300 ft 117 kts 92°
2026-04-21 22:54 58.35756 -134.59898 116 ft 117 kts 94°
2026-04-21 22:54 58.35602 -134.58392 33 ft 116 kts 104°
2026-04-21 22:54 58.35438 -134.57195 34 ft 51 kts 105°
2026-04-21 22:54 58.35383 -134.56798 33 ft 16 kts 96°
2026-04-21 22:55 58.35427 -134.56674 33 ft 11 kts 17°
2026-04-21 22:55 58.35481 -134.56746 33 ft 10 kts 290°
2026-04-21 22:55 58.35504 -134.56899 33 ft 18 kts 284°
2026-04-21 22:55 58.35543 -134.57192 33 ft 23 kts 285°
2026-04-21 22:56 58.35586 -134.57481 34 ft 23 kts 285°
2026-04-21 22:56 58.35626 -134.57770 33 ft 23 kts 285°
2026-04-21 22:56 58.35667 -134.58077 33 ft 24 kts 285°
2026-04-21 22:56 58.35718 -134.58298 33 ft 12 kts 342°
2026-04-21 22:57 58.35772 -134.58367 32 ft 11 kts 285°
2026-04-21 22:57 58.35800 -134.58484 33 ft 8 kts 325°
2026-04-21 22:57 58.35830 -134.58466 32 ft 4 kts 50°
2026-04-21 22:57 58.35844 -134.58435 32 ft 2 kts 48°
2026-04-21 22:58 58.35848 -134.58427 33 ft 0 kts 48°